Time,TemperatureF,DewpointF,PressureIn,WindDirection,WindDirectionDegrees,WindSpeedMPH,WindSpeedGustMPH,Humidity,HourlyPrecipIn,Conditions,Clouds,dailyrainin,SoftwareType,DateUTC
2013-07-16 00:02:00,75.0,68.0,30.17,SE,135,0.0,0.0,79,0.00,,,0.00,meteohub,2013-07-16 04:02:00,
2013-07-16 00:07:00,74.8,68.2,30.17,SE,135,0.0,0.0,80,0.00,,,0.00,meteohub,2013-07-16 04:07:00,
2013-07-16 00:12:00,74.5,68.2,30.17,SE,135,0.0,0.0,81,0.00,,,0.00,meteohub,2013-07-16 04:12:00,
2013-07-16 00:17:00,74.5,68.2,30.17,SE,135,0.0,0.0,81,0.00,,,0.00,meteohub,2013-07-16 04:17:00,
2013-07-16 00:22:00,74.3,67.6,30.17,SE,135,0.0,0.0,80,0.00,,,0.00,meteohub,2013-07-16 04:22:00,
2013-07-16 00:27:00,74.5,68.2,30.17,SE,135,0.0,0.0,81,0.00,,,0.00,meteohub,2013-07-16 04:27:00,
2013-07-16 00:32:00,74.1,68.2,30.17,SE,135,0.0,0.0,82,0.00,,,0.00,meteohub,2013-07-16 04:32:00,
2013-07-16 00:37:00,73.9,68.2,30.17,SE,135,0.0,0.0,82,0.00,,,0.00,meteohub,2013-07-16 04:37:00,
2013-07-16 00:42:00,73.8,68.4,30.17,SE,135,0.0,0.0,83,0.00,,,0.00,meteohub,2013-07-16 04:42:00,
2013-07-16 00:47:00,73.6,68.2,30.17,SE,135,0.0,0.0,83,0.00,,,0.00,meteohub,2013-07-16 04:47:00,
2013-07-16 00:57:00,73.4,68.0,30.17,SE,135,0.0,0.0,83,0.00,,,0.00,meteohub,2013-07-16 04:57:00,
2013-07-16 01:02:00,73.2,68.4,30.17,SE,135,0.0,0.0,85,0.00,,,0.00,meteohub,2013-07-16 05:02:00,
2013-07-16 01:07:00,73.0,68.2,30.17,SE,135,0.0,0.0,85,0.00,,,0.00,meteohub,2013-07-16 05:07:00,
2013-07-16 01:12:00,72.9,68.0,30.17,SSE,158,0.0,0.0,85,0.00,,,0.00,meteohub,2013-07-16 05:12:00,
2013-07-16 01:17:00,72.7,67.8,30.17,South,180,0.0,0.0,85,0.00,,,0.00,meteohub,2013-07-16 05:17:00,
2013-07-16 01:22:00,72.7,67.8,30.17,South,180,0.0,0.0,85,0.00,,,0.00,meteohub,2013-07-16 05:22:00,
2013-07-16 01:27:00,72.7,67.8,30.17,South,180,0.0,0.0,85,0.00,,,0.00,meteohub,2013-07-16 05:27:00,
2013-07-16 01:32:00,72.7,67.6,30.20,South,180,0.0,0.0,84,0.00,,,0.00,meteohub,2013-07-16 05:32:00,
2013-07-16 01:37:00,72.7,67.8,30.20,South,180,0.0,0.0,85,0.00,,,0.00,meteohub,2013-07-16 05:37:00,
2013-07-16 01:42:00,72.5,67.5,30.20,South,180,0.0,0.0,84,0.00,,,0.00,meteohub,2013-07-16 05:42:00,
2013-07-16 01:47:00,72.5,67.5,30.17,South,180,0.0,0.0,84,0.00,,,0.00,meteohub,2013-07-16 05:47:00,
2013-07-16 01:52:00,72.3,67.6,30.17,South,180,0.0,0.0,85,0.00,,,0.00,meteohub,2013-07-16 05:52:00,
2013-07-16 01:57:00,72.1,67.5,30.17,South,180,0.0,0.0,85,0.00,,,0.00,meteohub,2013-07-16 05:57:00,
2013-07-16 02:02:00,72.0,67.3,30.17,South,180,0.0,0.0,85,0.00,,,0.00,meteohub,2013-07-16 06:02:00,
2013-07-16 02:07:00,72.1,67.1,30.17,South,180,0.0,0.0,84,0.00,,,0.00,meteohub,2013-07-16 06:07:00,
2013-07-16 02:12:00,72.1,66.7,30.17,South,180,0.0,0.0,83,0.00,,,0.00,meteohub,2013-07-16 06:12:00,
2013-07-16 02:17:00,72.3,66.6,30.17,South,180,0.0,0.0,82,0.00,,,0.00,meteohub,2013-07-16 06:17:00,
2013-07-16 02:22:00,72.3,66.9,30.17,South,180,0.0,0.0,83,0.00,,,0.00,meteohub,2013-07-16 06:22:00,
2013-07-16 02:27:00,72.1,66.7,30.17,SW,225,0.0,0.0,83,0.00,,,0.00,meteohub,2013-07-16 06:27:00,
2013-07-16 02:32:00,72.0,66.6,30.17,SSW,202,0.0,0.0,83,0.00,,,0.00,meteohub,2013-07-16 06:32:00,
2013-07-16 02:37:00,71.8,66.7,30.17,SSW,202,0.0,0.0,84,0.00,,,0.00,meteohub,2013-07-16 06:37:00,
2013-07-16 02:42:00,71.8,66.4,30.17,SW,225,0.0,0.0,83,0.00,,,0.00,meteohub,2013-07-16 06:42:00,
2013-07-16 02:47:00,71.6,66.6,30.17,SW,225,0.0,0.0,84,0.00,,,0.00,meteohub,2013-07-16 06:47:00,
2013-07-16 02:52:00,71.4,66.4,30.17,SW,225,0.0,0.0,84,0.00,,,0.00,meteohub,2013-07-16 06:52:00,
2013-07-16 02:57:00,71.4,66.4,30.17,South,180,0.0,0.0,84,0.00,,,0.00,meteohub,2013-07-16 06:57:00,
2013-07-16 03:02:00,71.2,66.6,30.17,South,180,0.0,0.0,85,0.00,,,0.00,meteohub,2013-07-16 07:02:00,
2013-07-16 03:07:00,71.2,65.8,30.17,South,180,0.0,0.0,83,0.00,,,0.00,meteohub,2013-07-16 07:07:00,
2013-07-16 03:12:00,71.4,66.0,30.17,South,180,0.0,0.0,83,0.00,,,0.00,meteohub,2013-07-16 07:12:00,
2013-07-16 03:17:00,71.4,65.7,30.17,South,180,0.0,0.0,82,0.00,,,0.00,meteohub,2013-07-16 07:17:00,
2013-07-16 03:22:00,71.6,65.5,30.17,South,180,0.0,0.0,81,0.00,,,0.00,meteohub,2013-07-16 07:22:00,
2013-07-16 03:27:00,71.8,65.7,30.17,South,180,0.0,0.0,81,0.00,,,0.00,meteohub,2013-07-16 07:27:00,
2013-07-16 03:32:00,71.8,65.3,30.17,SSE,158,0.0,0.0,80,0.00,,,0.00,meteohub,2013-07-16 07:32:00,
2013-07-16 03:37:00,72.0,65.5,30.17,SSE,158,0.0,0.0,80,0.00,,,0.00,meteohub,2013-07-16 07:37:00,
2013-07-16 03:42:00,72.0,65.5,30.17,SSE,158,0.0,0.0,80,0.00,,,0.00,meteohub,2013-07-16 07:42:00,
2013-07-16 03:47:00,72.0,65.5,30.17,ESE,112,0.0,0.0,80,0.00,,,0.00,meteohub,2013-07-16 07:47:00,
2013-07-16 03:52:00,71.8,65.3,30.17,SE,135,0.0,0.0,80,0.00,,,0.00,meteohub,2013-07-16 07:52:00,
2013-07-16 03:57:00,71.4,65.3,30.17,SSE,158,0.0,0.0,81,0.00,,,0.00,meteohub,2013-07-16 07:57:00,
2013-07-16 04:02:00,71.6,65.1,30.17,SSE,158,0.0,0.0,80,0.00,,,0.00,meteohub,2013-07-16 08:02:00,
2013-07-16 04:07:00,71.6,64.8,30.17,SSE,158,0.0,0.0,79,0.00,,,0.00,meteohub,2013-07-16 08:07:00,
2013-07-16 04:12:00,71.6,65.1,30.17,SSE,158,0.0,0.0,80,0.00,,,0.00,meteohub,2013-07-16 08:12:00,
2013-07-16 04:17:00,71.1,64.6,30.17,South,180,0.0,0.0,80,0.00,,,0.00,meteohub,2013-07-16 08:17:00,
2013-07-16 04:22:00,71.1,64.6,30.17,South,180,0.0,0.0,80,0.00,,,0.00,meteohub,2013-07-16 08:22:00,
2013-07-16 04:27:00,71.1,64.6,30.17,South,180,0.0,0.0,80,0.00,,,0.00,meteohub,2013-07-16 08:27:00,
2013-07-16 04:32:00,71.2,64.8,30.17,South,180,0.0,0.0,80,0.00,,,0.00,meteohub,2013-07-16 08:32:00,
2013-07-16 04:37:00,71.2,64.8,30.17,South,180,0.0,0.0,80,0.00,,,0.00,meteohub,2013-07-16 08:37:00,
2013-07-16 04:42:00,71.4,64.9,30.17,South,180,0.0,0.0,80,0.00,,,0.00,meteohub,2013-07-16 08:42:00,
2013-07-16 04:47:00,71.4,64.9,30.17,South,180,0.0,0.0,80,0.00,,,0.00,meteohub,2013-07-16 08:47:00,
2013-07-16 04:52:00,71.2,64.8,30.17,South,180,0.0,0.0,80,0.00,,,0.00,meteohub,2013-07-16 08:52:00,
2013-07-16 04:57:00,71.2,64.8,30.17,ESE,112,0.0,0.0,80,0.00,,,0.00,meteohub,2013-07-16 08:57:00,
2013-07-16 05:02:00,71.2,64.8,30.17,ESE,112,0.0,0.0,80,0.00,,,0.00,meteohub,2013-07-16 09:02:00,
2013-07-16 05:07:00,71.2,64.8,30.17,ESE,112,0.0,0.0,80,0.00,,,0.00,meteohub,2013-07-16 09:07:00,
2013-07-16 05:12:00,71.2,64.8,30.17,ESE,112,0.0,0.0,80,0.00,,,0.00,meteohub,2013-07-16 09:12:00,
2013-07-16 05:17:00,71.2,64.8,30.17,ESE,112,0.0,0.0,80,0.00,,,0.00,meteohub,2013-07-16 09:17:00,
2013-07-16 05:22:00,71.2,64.8,30.17,ESE,112,0.0,0.0,80,0.00,,,0.00,meteohub,2013-07-16 09:22:00,
2013-07-16 05:27:00,71.4,64.9,30.17,ESE,112,0.0,0.0,80,0.00,,,0.00,meteohub,2013-07-16 09:27:00,
2013-07-16 05:32:00,71.4,64.6,30.20,ESE,112,0.0,0.0,79,0.00,,,0.00,meteohub,2013-07-16 09:32:00,
2013-07-16 05:37:00,71.4,64.9,30.20,East,90,0.0,0.0,80,0.00,,,0.00,meteohub,2013-07-16 09:37:00,
2013-07-16 05:42:00,71.4,64.6,30.20,East,90,0.0,0.0,79,0.00,,,0.00,meteohub,2013-07-16 09:42:00,
2013-07-16 05:47:00,71.4,64.6,30.17,East,90,0.0,0.0,79,0.00,,,0.00,meteohub,2013-07-16 09:47:00,
2013-07-16 05:52:00,71.6,64.8,30.17,East,90,0.0,0.0,79,0.00,,,0.00,meteohub,2013-07-16 09:52:00,
2013-07-16 05:57:00,71.6,64.8,30.20,East,90,0.0,0.0,79,0.00,,,0.00,meteohub,2013-07-16 09:57:00,
2013-07-16 06:02:00,71.6,64.8,30.20,East,90,0.0,0.0,79,0.00,,,0.00,meteohub,2013-07-16 10:02:00,
2013-07-16 06:07:00,71.6,64.8,30.20,East,90,0.0,0.0,79,0.00,,,0.00,meteohub,2013-07-16 10:07:00,
2013-07-16 06:12:00,71.6,65.1,30.20,SSE,158,0.0,0.0,80,0.00,,,0.00,meteohub,2013-07-16 10:12:00,
2013-07-16 06:17:00,71.6,65.1,30.20,SE,135,0.0,0.0,80,0.00,,,0.00,meteohub,2013-07-16 10:17:00,
2013-07-16 06:22:00,71.6,65.1,30.20,SE,135,0.0,0.0,80,0.00,,,0.00,meteohub,2013-07-16 10:22:00,
2013-07-16 06:27:00,71.4,65.3,30.20,SE,135,0.0,0.0,81,0.00,,,0.00,meteohub,2013-07-16 10:27:00,
2013-07-16 06:32:00,71.4,65.3,30.20,SE,135,0.0,0.0,81,0.00,,,0.00,meteohub,2013-07-16 10:32:00,
2013-07-16 06:37:00,71.6,65.5,30.20,SE,135,0.0,0.0,81,0.00,,,0.00,meteohub,2013-07-16 10:37:00,
2013-07-16 06:42:00,71.6,65.5,30.20,SE,135,0.0,0.0,81,0.00,,,0.00,meteohub,2013-07-16 10:42:00,
2013-07-16 06:47:00,72.0,65.8,30.20,ESE,112,0.0,0.0,81,0.00,,,0.00,meteohub,2013-07-16 10:47:00,
2013-07-16 06:52:00,72.0,65.8,30.20,ESE,112,0.0,0.0,81,0.00,,,0.00,meteohub,2013-07-16 10:52:00,
2013-07-16 06:57:00,72.1,66.0,30.20,ESE,112,0.0,0.0,81,0.00,,,0.00,meteohub,2013-07-16 10:57:00,
2013-07-16 07:02:00,72.3,66.2,30.20,ESE,112,0.0,0.0,81,0.00,,,0.00,meteohub,2013-07-16 11:02:00,
2013-07-16 07:07:00,72.5,66.0,30.20,ESE,112,0.0,0.0,80,0.00,,,0.00,meteohub,2013-07-16 11:07:00,
2013-07-16 07:12:00,72.7,66.2,30.20,ESE,112,0.0,0.0,80,0.00,,,0.00,meteohub,2013-07-16 11:12:00,
2013-07-16 07:17:00,72.9,66.4,30.20,ESE,112,0.0,0.0,80,0.00,,,0.00,meteohub,2013-07-16 11:17:00,
2013-07-16 07:22:00,73.0,66.6,30.20,ESE,112,0.0,0.0,80,0.00,,,0.00,meteohub,2013-07-16 11:22:00,
2013-07-16 07:27:00,73.2,66.7,30.20,ESE,112,0.0,0.0,80,0.00,,,0.00,meteohub,2013-07-16 11:27:00,
2013-07-16 07:32:00,73.6,66.7,30.20,East,90,0.0,0.0,79,0.00,,,0.00,meteohub,2013-07-16 11:32:00,
2013-07-16 07:37:00,73.9,67.1,30.20,ENE,68,0.0,0.0,79,0.00,,,0.00,meteohub,2013-07-16 11:37:00,
2013-07-16 07:42:00,74.1,67.1,30.20,ENE,68,0.0,0.0,79,0.00,,,0.00,meteohub,2013-07-16 11:42:00,
2013-07-16 07:47:00,74.3,67.3,30.20,ENE,68,0.0,0.0,79,0.00,,,0.00,meteohub,2013-07-16 11:47:00,
2013-07-16 07:52:00,74.7,67.6,30.20,ENE,68,0.0,0.0,79,0.00,,,0.00,meteohub,2013-07-16 11:52:00,
2013-07-16 07:57:00,75.0,67.6,30.20,ENE,68,0.0,0.0,78,0.00,,,0.00,meteohub,2013-07-16 11:57:00,
2013-07-16 08:02:00,75.2,67.8,30.20,ENE,68,0.0,0.0,78,0.00,,,0.00,meteohub,2013-07-16 12:02:00,
2013-07-16 08:07:00,75.6,67.8,30.20,ENE,68,0.0,0.0,77,0.00,,,0.00,meteohub,2013-07-16 12:07:00,
2013-07-16 08:12:00,75.7,68.0,30.23,NE,45,0.0,0.0,77,0.00,,,0.00,meteohub,2013-07-16 12:12:00,
2013-07-16 08:17:00,76.1,68.4,30.23,NNE,22,0.0,0.0,77,0.00,,,0.00,meteohub,2013-07-16 12:17:00,
2013-07-16 08:22:00,76.5,68.4,30.23,NNE,22,0.0,0.0,76,0.00,,,0.00,meteohub,2013-07-16 12:22:00,
2013-07-16 08:27:00,76.6,68.5,30.23,NNW,338,0.0,0.0,76,0.00,,,0.00,meteohub,2013-07-16 12:27:00,
2013-07-16 08:32:00,77.0,68.5,30.23,NNW,338,0.0,1.0,75,0.00,,,0.00,meteohub,2013-07-16 12:32:00,
2013-07-16 08:37:00,77.4,67.6,30.23,North,0,1.0,2.0,72,0.00,,,0.00,meteohub,2013-07-16 12:37:00,
2013-07-16 08:42:00,77.9,67.8,30.23,North,0,3.0,3.0,71,0.00,,,0.00,meteohub,2013-07-16 12:42:00,
2013-07-16 08:47:00,78.4,65.7,30.23,NNW,338,2.0,2.0,65,0.00,,,0.00,meteohub,2013-07-16 12:47:00,
2013-07-16 08:52:00,78.8,66.0,30.23,NNW,338,2.0,3.0,65,0.00,,,0.00,meteohub,2013-07-16 12:52:00,
2013-07-16 08:57:00,79.0,66.2,30.20,NW,315,2.0,3.0,65,0.00,,,0.00,meteohub,2013-07-16 12:57:00,
2013-07-16 09:02:00,79.3,66.6,30.20,NNW,338,1.0,3.0,65,0.00,,,0.00,meteohub,2013-07-16 13:02:00,
2013-07-16 09:07:00,79.3,66.6,30.20,NW,315,2.0,3.0,65,0.00,,,0.00,meteohub,2013-07-16 13:07:00,
2013-07-16 09:12:00,79.7,66.4,30.20,NW,315,1.0,3.0,64,0.00,,,0.00,meteohub,2013-07-16 13:12:00,
2013-07-16 09:17:00,79.9,67.1,30.23,NW,315,2.0,2.0,65,0.00,,,0.00,meteohub,2013-07-16 13:17:00,
2013-07-16 09:22:00,80.1,66.7,30.23,NNW,338,1.0,2.0,64,0.00,,,0.00,meteohub,2013-07-16 13:22:00,
2013-07-16 09:27:00,80.2,66.6,30.20,NNW,338,2.0,3.0,63,0.00,,,0.00,meteohub,2013-07-16 13:27:00,
2013-07-16 09:32:00,80.6,66.9,30.20,NNW,338,2.0,3.0,63,0.00,,,0.00,meteohub,2013-07-16 13:32:00,
2013-07-16 09:37:00,81.0,65.8,30.20,NNW,338,3.0,3.0,60,0.00,,,0.00,meteohub,2013-07-16 13:37:00,
2013-07-16 09:42:00,81.0,66.7,30.20,West,270,1.0,4.0,62,0.00,,,0.00,meteohub,2013-07-16 13:42:00,
2013-07-16 09:47:00,81.3,67.1,30.20,NNW,338,2.0,4.0,62,0.00,,,0.00,meteohub,2013-07-16 13:47:00,
2013-07-16 09:52:00,81.5,67.3,30.20,NNE,22,2.0,3.0,62,0.00,,,0.00,meteohub,2013-07-16 13:52:00,
2013-07-16 09:57:00,81.9,67.6,30.20,NNW,338,0.0,3.0,62,0.00,,,0.00,meteohub,2013-07-16 13:57:00,
2013-07-16 10:02:00,82.0,67.3,30.20,NNW,338,3.0,3.0,61,0.00,,,0.00,meteohub,2013-07-16 14:02:00,
2013-07-16 10:07:00,82.0,66.7,30.20,NNW,338,2.0,3.0,60,0.00,,,0.00,meteohub,2013-07-16 14:07:00,
2013-07-16 10:12:00,82.2,67.5,30.20,NNW,338,0.0,3.0,61,0.00,,,0.00,meteohub,2013-07-16 14:12:00,
2013-07-16 10:17:00,82.4,66.6,30.20,NNW,338,1.0,3.0,59,0.00,,,0.00,meteohub,2013-07-16 14:17:00,
2013-07-16 10:22:00,82.4,67.1,30.20,NNW,338,2.0,3.0,60,0.00,,,0.00,meteohub,2013-07-16 14:22:00,
2013-07-16 10:27:00,82.6,66.7,30.20,NNW,338,2.0,3.0,59,0.00,,,0.00,meteohub,2013-07-16 14:27:00,
2013-07-16 10:32:00,82.9,67.6,30.20,NNW,338,2.0,3.0,60,0.00,,,0.00,meteohub,2013-07-16 14:32:00,
2013-07-16 10:37:00,83.1,67.8,30.20,North,0,1.0,3.0,60,0.00,,,0.00,meteohub,2013-07-16 14:37:00,
2013-07-16 10:42:00,83.3,67.5,30.20,NNW,338,1.0,2.0,59,0.00,,,0.00,meteohub,2013-07-16 14:42:00,
2013-07-16 10:47:00,83.5,67.6,30.20,NW,315,0.0,3.0,59,0.00,,,0.00,meteohub,2013-07-16 14:47:00,
2013-07-16 10:52:00,83.7,67.8,30.20,NW,315,2.0,3.0,59,0.00,,,0.00,meteohub,2013-07-16 14:52:00,
2013-07-16 10:57:00,83.7,67.8,30.20,NNW,338,2.0,3.0,59,0.00,,,0.00,meteohub,2013-07-16 14:57:00,
2013-07-16 11:02:00,83.8,66.9,30.20,NNW,338,3.0,3.0,57,0.00,,,0.00,meteohub,2013-07-16 15:02:00,
2013-07-16 11:07:00,84.0,67.6,30.20,NNW,338,2.0,3.0,58,0.00,,,0.00,meteohub,2013-07-16 15:07:00,
2013-07-16 11:12:00,84.0,67.1,30.20,NW,315,2.0,3.0,57,0.00,,,0.00,meteohub,2013-07-16 15:12:00,
2013-07-16 11:17:00,84.2,66.7,30.20,NNW,338,1.0,3.0,56,0.00,,,0.00,meteohub,2013-07-16 15:17:00,
2013-07-16 11:22:00,84.4,66.4,30.20,NNW,338,1.0,3.0,55,0.00,,,0.00,meteohub,2013-07-16 15:22:00,
2013-07-16 11:27:00,84.6,66.6,30.20,NNW,338,0.0,3.0,55,0.00,,,0.00,meteohub,2013-07-16 15:27:00,
2013-07-16 11:32:00,84.7,66.2,30.20,NW,315,2.0,3.0,54,0.00,,,0.00,meteohub,2013-07-16 15:32:00,
2013-07-16 11:37:00,84.9,64.8,30.20,North,0,1.0,3.0,51,0.00,,,0.00,meteohub,2013-07-16 15:37:00,
2013-07-16 11:42:00,85.1,64.9,30.20,NW,315,4.0,4.0,51,0.00,,,0.00,meteohub,2013-07-16 15:42:00,
2013-07-16 11:47:00,85.3,64.6,30.20,NW,315,1.0,4.0,50,0.00,,,0.00,meteohub,2013-07-16 15:47:00,
2013-07-16 11:52:00,85.5,64.8,30.20,NNE,22,0.0,4.0,50,0.00,,,0.00,meteohub,2013-07-16 15:52:00,
2013-07-16 11:57:00,85.6,64.9,30.20,NNE,22,1.0,4.0,50,0.00,,,0.00,meteohub,2013-07-16 15:57:00,
2013-07-16 12:02:00,85.8,64.4,30.20,WNW,292,1.0,3.0,49,0.00,,,0.00,meteohub,2013-07-16 16:02:00,
2013-07-16 12:07:00,86.0,63.5,30.20,NW,315,2.0,3.0,47,0.00,,,0.00,meteohub,2013-07-16 16:07:00,
2013-07-16 12:12:00,86.2,63.5,30.20,North,0,2.0,4.0,47,0.00,,,0.00,meteohub,2013-07-16 16:12:00,
2013-07-16 12:17:00,86.5,63.3,30.20,NNW,338,3.0,4.0,46,0.00,,,0.00,meteohub,2013-07-16 16:17:00,
2013-07-16 12:22:00,86.7,62.8,30.20,NNW,338,3.0,4.0,45,0.00,,,0.00,meteohub,2013-07-16 16:22:00,
2013-07-16 12:27:00,86.9,63.0,30.17,NW,315,2.0,5.0,45,0.00,,,0.00,meteohub,2013-07-16 16:27:00,
2013-07-16 12:32:00,87.1,63.1,30.17,NNW,338,2.0,5.0,45,0.00,,,0.00,meteohub,2013-07-16 16:32:00,
2013-07-16 12:37:00,87.3,62.6,30.17,NNW,338,2.0,5.0,44,0.00,,,0.00,meteohub,2013-07-16 16:37:00,
2013-07-16 12:42:00,87.6,63.7,30.17,NNW,338,3.0,4.0,45,0.00,,,0.00,meteohub,2013-07-16 16:42:00,
2013-07-16 12:47:00,87.3,63.3,30.17,NW,315,3.0,3.0,45,0.00,,,0.00,meteohub,2013-07-16 16:47:00,
2013-07-16 12:52:00,86.9,62.4,30.17,NNW,338,4.0,4.0,44,0.00,,,0.00,meteohub,2013-07-16 16:52:00,
2013-07-16 12:57:00,86.7,61.5,30.17,NNW,338,3.0,4.0,43,0.00,,,0.00,meteohub,2013-07-16 16:57:00,
2013-07-16 13:02:00,86.9,61.7,30.17,NNW,338,2.0,6.0,43,0.00,,,0.00,meteohub,2013-07-16 17:02:00,
2013-07-16 13:07:00,87.1,61.9,30.17,NW,315,3.0,6.0,43,0.00,,,0.00,meteohub,2013-07-16 17:07:00,
2013-07-16 13:12:00,87.4,61.5,30.17,NW,315,3.0,5.0,42,0.00,,,0.00,meteohub,2013-07-16 17:12:00,
2013-07-16 13:17:00,87.8,61.2,30.17,NNW,338,4.0,5.0,41,0.00,,,0.00,meteohub,2013-07-16 17:17:00,
2013-07-16 13:22:00,88.0,61.3,30.17,NNW,338,2.0,6.0,41,0.00,,,0.00,meteohub,2013-07-16 17:22:00,
2013-07-16 13:27:00,88.2,62.2,30.17,NW,315,3.0,6.0,42,0.00,,,0.00,meteohub,2013-07-16 17:27:00,
2013-07-16 13:32:00,88.3,61.7,30.17,NNW,338,3.0,6.0,41,0.00,,,0.00,meteohub,2013-07-16 17:32:00,
2013-07-16 13:37:00,88.5,61.2,30.17,NNW,338,4.0,4.0,40,0.00,,,0.00,meteohub,2013-07-16 17:37:00,
2013-07-16 13:42:00,88.5,60.4,30.17,North,0,3.0,4.0,39,0.00,,,0.00,meteohub,2013-07-16 17:42:00,
2013-07-16 13:47:00,88.3,60.3,30.17,NNW,338,4.0,5.0,39,0.00,,,0.00,meteohub,2013-07-16 17:47:00,
2013-07-16 13:52:00,88.3,60.3,30.17,NW,315,4.0,5.0,39,0.00,,,0.00,meteohub,2013-07-16 17:52:00,
2013-07-16 13:57:00,88.3,61.0,30.17,NW,315,2.0,4.0,40,0.00,,,0.00,meteohub,2013-07-16 17:57:00,
2013-07-16 14:02:00,88.5,60.4,30.17,North,0,1.0,4.0,39,0.00,,,0.00,meteohub,2013-07-16 18:02:00,
2013-07-16 14:07:00,88.7,61.3,30.17,NNW,338,3.0,4.0,40,0.00,,,0.00,meteohub,2013-07-16 18:07:00,
2013-07-16 14:12:00,88.7,61.3,30.17,NW,315,2.0,4.0,40,0.00,,,0.00,meteohub,2013-07-16 18:12:00,
2013-07-16 14:17:00,88.7,61.9,30.17,NNW,338,4.0,4.0,41,0.00,,,0.00,meteohub,2013-07-16 18:17:00,
2013-07-16 14:22:00,88.3,61.0,30.17,NNW,338,2.0,5.0,40,0.00,,,0.00,meteohub,2013-07-16 18:22:00,
2013-07-16 14:27:00,88.3,61.7,30.17,NNW,338,2.0,5.0,41,0.00,,,0.00,meteohub,2013-07-16 18:27:00,
2013-07-16 14:32:00,88.5,61.2,30.17,NNW,338,4.0,5.0,40,0.00,,,0.00,meteohub,2013-07-16 18:32:00,
2013-07-16 14:37:00,88.7,60.6,30.17,NNW,338,2.0,4.0,39,0.00,,,0.00,meteohub,2013-07-16 18:37:00,
2013-07-16 14:42:00,88.9,60.8,30.17,NNW,338,4.0,4.0,39,0.00,,,0.00,meteohub,2013-07-16 18:42:00,
2013-07-16 14:47:00,88.9,61.3,30.14,NW,315,2.0,5.0,40,0.00,,,0.00,meteohub,2013-07-16 18:47:00,
2013-07-16 14:52:00,88.9,60.8,30.14,NNW,338,2.0,5.0,39,0.00,,,0.00,meteohub,2013-07-16 18:52:00,
2013-07-16 14:57:00,89.1,60.8,30.17,NW,315,2.0,5.0,39,0.00,,,0.00,meteohub,2013-07-16 18:57:00,
2013-07-16 15:02:00,89.1,60.8,30.17,NW,315,4.0,6.0,39,0.00,,,0.00,meteohub,2013-07-16 19:02:00,
2013-07-16 15:07:00,89.2,61.0,30.17,North,0,3.0,6.0,39,0.00,,,0.00,meteohub,2013-07-16 19:07:00,
2013-07-16 15:12:00,89.2,60.3,30.17,North,0,2.0,5.0,38,0.00,,,0.00,meteohub,2013-07-16 19:12:00,
2013-07-16 15:17:00,89.1,60.1,30.17,North,0,2.0,5.0,38,0.00,,,0.00,meteohub,2013-07-16 19:17:00,
2013-07-16 15:22:00,89.1,60.1,30.17,North,0,3.0,5.0,38,0.00,,,0.00,meteohub,2013-07-16 19:22:00,
2013-07-16 15:27:00,88.9,59.9,30.17,North,0,3.0,4.0,38,0.00,,,0.00,meteohub,2013-07-16 19:27:00,
2013-07-16 15:32:00,89.1,60.1,30.17,WNW,292,3.0,4.0,38,0.00,,,0.00,meteohub,2013-07-16 19:32:00,
2013-07-16 15:37:00,89.2,61.0,30.17,North,0,3.0,4.0,39,0.00,,,0.00,meteohub,2013-07-16 19:37:00,
2013-07-16 15:42:00,89.2,60.3,30.17,NW,315,3.0,4.0,38,0.00,,,0.00,meteohub,2013-07-16 19:42:00,
2013-07-16 15:47:00,89.2,61.0,30.17,NNW,338,3.0,4.0,39,0.00,,,0.00,meteohub,2013-07-16 19:47:00,
2013-07-16 15:52:00,89.4,60.4,30.17,NW,315,3.0,5.0,38,0.00,,,0.00,meteohub,2013-07-16 19:52:00,
2013-07-16 15:57:00,89.2,61.0,30.17,NNE,22,2.0,5.0,39,0.00,,,0.00,meteohub,2013-07-16 19:57:00,
2013-07-16 16:02:00,89.2,60.3,30.17,NNW,338,3.0,5.0,38,0.00,,,0.00,meteohub,2013-07-16 20:02:00,
2013-07-16 16:07:00,89.2,59.5,30.17,NW,315,2.0,4.0,37,0.00,,,0.00,meteohub,2013-07-16 20:07:00,
2013-07-16 16:12:00,89.1,60.1,30.17,NNW,338,2.0,4.0,38,0.00,,,0.00,meteohub,2013-07-16 20:12:00,
2013-07-16 16:17:00,89.1,60.1,30.17,NNW,338,2.0,4.0,38,0.00,,,0.00,meteohub,2013-07-16 20:17:00,
2013-07-16 16:22:00,89.1,60.1,30.17,NNW,338,4.0,4.0,38,0.00,,,0.00,meteohub,2013-07-16 20:22:00,
2013-07-16 16:27:00,89.1,59.4,30.17,North,0,3.0,5.0,37,0.00,,,0.00,meteohub,2013-07-16 20:27:00,
2013-07-16 16:32:00,89.1,60.1,30.17,NNW,338,1.0,5.0,38,0.00,,,0.00,meteohub,2013-07-16 20:32:00,
2013-07-16 16:37:00,89.1,60.8,30.17,North,0,2.0,5.0,39,0.00,,,0.00,meteohub,2013-07-16 20:37:00,
2013-07-16 16:42:00,89.1,60.8,30.17,North,0,3.0,4.0,39,0.00,,,0.00,meteohub,2013-07-16 20:42:00,
2013-07-16 16:47:00,89.1,60.8,30.17,NNW,338,2.0,4.0,39,0.00,,,0.00,meteohub,2013-07-16 20:47:00,
2013-07-16 16:52:00,89.1,60.8,30.17,North,0,1.0,4.0,39,0.00,,,0.00,meteohub,2013-07-16 20:52:00,
2013-07-16 16:57:00,89.1,60.8,30.17,NW,315,3.0,4.0,39,0.00,,,0.00,meteohub,2013-07-16 20:57:00,
2013-07-16 17:02:00,89.1,60.8,30.17,North,0,2.0,4.0,39,0.00,,,0.00,meteohub,2013-07-16 21:02:00,
2013-07-16 17:07:00,89.1,60.8,30.17,NW,315,3.0,4.0,39,0.00,,,0.00,meteohub,2013-07-16 21:07:00,
2013-07-16 17:12:00,89.1,60.8,30.17,NW,315,1.0,3.0,39,0.00,,,0.00,meteohub,2013-07-16 21:12:00,
2013-07-16 17:17:00,89.1,60.8,30.14,NW,315,2.0,3.0,39,0.00,,,0.00,meteohub,2013-07-16 21:17:00,
2013-07-16 17:22:00,88.9,60.8,30.14,NW,315,0.0,3.0,39,0.00,,,0.00,meteohub,2013-07-16 21:22:00,
2013-07-16 17:27:00,88.9,60.8,30.14,NNW,338,2.0,3.0,39,0.00,,,0.00,meteohub,2013-07-16 21:27:00,
2013-07-16 17:32:00,88.9,61.3,30.14,NNW,338,3.0,3.0,40,0.00,,,0.00,meteohub,2013-07-16 21:32:00,
2013-07-16 17:37:00,88.9,60.8,30.14,NNW,338,2.0,3.0,39,0.00,,,0.00,meteohub,2013-07-16 21:37:00,
2013-07-16 17:42:00,88.9,60.8,30.14,NNW,338,2.0,3.0,39,0.00,,,0.00,meteohub,2013-07-16 21:42:00,
2013-07-16 17:47:00,88.9,60.8,30.14,NW,315,4.0,4.0,39,0.00,,,0.00,meteohub,2013-07-16 21:47:00,
2013-07-16 17:52:00,88.9,60.8,30.14,NNW,338,2.0,4.0,39,0.00,,,0.00,meteohub,2013-07-16 21:52:00,
2013-07-16 17:57:00,88.9,60.8,30.14,NNE,22,0.0,4.0,39,0.00,,,0.00,meteohub,2013-07-16 21:57:00,
2013-07-16 18:02:00,88.9,61.3,30.14,NW,315,2.0,4.0,40,0.00,,,0.00,meteohub,2013-07-16 22:02:00,
2013-07-16 18:07:00,88.7,61.3,30.14,NNW,338,0.0,3.0,40,0.00,,,0.00,meteohub,2013-07-16 22:07:00,
2013-07-16 18:12:00,88.7,61.9,30.14,North,0,0.0,3.0,41,0.00,,,0.00,meteohub,2013-07-16 22:12:00,
2013-07-16 18:17:00,88.5,62.4,30.14,NW,315,2.0,3.0,42,0.00,,,0.00,meteohub,2013-07-16 22:17:00,
2013-07-16 18:22:00,88.5,61.9,30.14,NE,45,1.0,2.0,41,0.00,,,0.00,meteohub,2013-07-16 22:22:00,
2013-07-16 18:32:00,88.0,62.1,30.14,NW,315,1.0,3.0,42,0.00,,,0.00,meteohub,2013-07-16 22:32:00,
2013-07-16 18:37:00,87.4,62.2,30.14,NNW,338,3.0,3.0,43,0.00,,,0.00,meteohub,2013-07-16 22:37:00,
2013-07-16 18:42:00,87.1,62.6,30.17,NNW,338,3.0,3.0,44,0.00,,,0.00,meteohub,2013-07-16 22:42:00,
2013-07-16 18:47:00,86.7,62.8,30.17,NNW,338,0.0,3.0,45,0.00,,,0.00,meteohub,2013-07-16 22:47:00,
2013-07-16 18:52:00,86.4,63.1,30.17,NNW,338,2.0,3.0,46,0.00,,,0.00,meteohub,2013-07-16 22:52:00,
2013-07-16 18:57:00,86.2,63.5,30.17,NNW,338,1.0,3.0,47,0.00,,,0.00,meteohub,2013-07-16 22:57:00,
2013-07-16 19:02:00,86.0,63.5,30.17,NNW,338,2.0,2.0,47,0.00,,,0.00,meteohub,2013-07-16 23:02:00,
2013-07-16 19:07:00,85.8,63.9,30.17,NNW,338,2.0,2.0,48,0.00,,,0.00,meteohub,2013-07-16 23:07:00,
2013-07-16 19:12:00,85.6,63.7,30.14,NNW,338,1.0,2.0,48,0.00,,,0.00,meteohub,2013-07-16 23:12:00,
2013-07-16 19:17:00,85.5,64.0,30.14,NNW,338,0.0,2.0,49,0.00,,,0.00,meteohub,2013-07-16 23:17:00,
2013-07-16 19:22:00,85.3,64.0,30.14,NNW,338,1.0,2.0,49,0.00,,,0.00,meteohub,2013-07-16 23:22:00,
2013-07-16 19:27:00,85.1,63.9,30.17,NNW,338,0.0,2.0,49,0.00,,,0.00,meteohub,2013-07-16 23:27:00,
2013-07-16 19:32:00,85.1,63.9,30.17,NNW,338,0.0,1.0,49,0.00,,,0.00,meteohub,2013-07-16 23:32:00,
2013-07-16 19:37:00,84.9,64.2,30.17,North,0,0.0,1.0,50,0.00,,,0.00,meteohub,2013-07-16 23:37:00,
2013-07-16 19:42:00,84.6,63.9,30.17,NE,45,0.0,1.0,50,0.00,,,0.00,meteohub,2013-07-16 23:42:00,
2013-07-16 19:47:00,84.4,64.2,30.17,ENE,68,0.0,1.0,51,0.00,,,0.00,meteohub,2013-07-16 23:47:00,
2013-07-16 19:52:00,84.2,64.6,30.17,ENE,68,0.0,1.0,52,0.00,,,0.00,meteohub,2013-07-16 23:52:00,
2013-07-16 19:57:00,83.8,65.5,30.17,ENE,68,0.0,0.0,54,0.00,,,0.00,meteohub,2013-07-16 23:57:00,
2013-07-16 20:02:00,83.7,65.3,30.17,ENE,68,0.0,0.0,54,0.00,,,0.00,meteohub,2013-07-17 00:02:00,
2013-07-16 20:07:00,83.3,65.5,30.17,NE,45,0.0,0.0,55,0.00,,,0.00,meteohub,2013-07-17 00:07:00,
2013-07-16 20:12:00,82.9,65.7,30.14,ENE,68,0.0,0.0,56,0.00,,,0.00,meteohub,2013-07-17 00:12:00,
2013-07-16 20:17:00,82.8,65.5,30.14,ENE,68,0.0,0.0,56,0.00,,,0.00,meteohub,2013-07-17 00:17:00,
2013-07-16 20:22:00,82.4,65.7,30.14,ENE,68,0.0,0.0,57,0.00,,,0.00,meteohub,2013-07-17 00:22:00,
2013-07-16 20:27:00,82.0,65.8,30.17,ESE,112,0.0,0.0,58,0.00,,,0.00,meteohub,2013-07-17 00:27:00,
2013-07-16 20:32:00,81.9,66.2,30.17,ESE,112,0.0,0.0,59,0.00,,,0.00,meteohub,2013-07-17 00:32:00,
2013-07-16 20:37:00,81.5,65.8,30.17,ESE,112,0.0,0.0,59,0.00,,,0.00,meteohub,2013-07-17 00:37:00,
2013-07-16 20:42:00,81.1,66.4,30.17,East,90,0.0,0.0,61,0.00,,,0.00,meteohub,2013-07-17 00:42:00,
2013-07-16 20:47:00,80.8,66.0,30.17,SSE,158,0.0,0.0,61,0.00,,,0.00,meteohub,2013-07-17 00:47:00,
2013-07-16 20:52:00,80.6,66.4,30.17,SSE,158,0.0,0.0,62,0.00,,,0.00,meteohub,2013-07-17 00:52:00,
2013-07-16 20:57:00,80.4,66.7,30.17,SSE,158,0.0,0.0,63,0.00,,,0.00,meteohub,2013-07-17 00:57:00,
2013-07-16 21:02:00,80.1,66.7,30.17,South,180,0.0,0.0,64,0.00,,,0.00,meteohub,2013-07-17 01:02:00,
2013-07-16 21:07:00,79.5,66.7,30.17,ENE,68,0.0,0.0,65,0.00,,,0.00,meteohub,2013-07-17 01:07:00,
2013-07-16 21:12:00,79.3,66.6,30.17,ENE,68,0.0,0.0,65,0.00,,,0.00,meteohub,2013-07-17 01:12:00,
2013-07-16 21:17:00,79.2,66.7,30.17,East,90,0.0,0.0,66,0.00,,,0.00,meteohub,2013-07-17 01:17:00,
2013-07-16 21:22:00,79.0,66.6,30.17,SSE,158,0.0,0.0,66,0.00,,,0.00,meteohub,2013-07-17 01:22:00,
2013-07-16 21:27:00,78.8,66.6,30.20,South,180,0.0,0.0,66,0.00,,,0.00,meteohub,2013-07-17 01:27:00,
2013-07-16 21:37:00,78.4,66.9,30.20,NW,315,0.0,0.0,68,0.00,,,0.00,meteohub,2013-07-17 01:37:00,
2013-07-16 21:42:00,78.1,67.1,30.20,NNE,22,0.0,0.0,69,0.00,,,0.00,meteohub,2013-07-17 01:42:00,
2013-07-16 21:47:00,77.9,66.9,30.20,NNE,22,0.0,0.0,69,0.00,,,0.00,meteohub,2013-07-17 01:47:00,
2013-07-16 21:52:00,77.7,66.7,30.20,NNE,22,0.0,0.0,69,0.00,,,0.00,meteohub,2013-07-17 01:52:00,
2013-07-16 21:57:00,77.4,66.7,30.20,NNE,22,0.0,0.0,70,0.00,,,0.00,meteohub,2013-07-17 01:57:00,
2013-07-16 22:02:00,77.2,66.6,30.20,NNE,22,0.0,0.0,70,0.00,,,0.00,meteohub,2013-07-17 02:02:00,
2013-07-16 22:07:00,77.0,66.4,30.20,NNE,22,0.0,0.0,70,0.00,,,0.00,meteohub,2013-07-17 02:07:00,
2013-07-16 22:12:00,77.0,66.4,30.20,NNE,22,0.0,0.0,70,0.00,,,0.00,meteohub,2013-07-17 02:12:00,
2013-07-16 22:17:00,76.8,66.7,30.20,NNE,22,0.0,0.0,71,0.00,,,0.00,meteohub,2013-07-17 02:17:00,
2013-07-16 22:22:00,76.8,67.1,30.20,NNE,22,0.0,0.0,72,0.00,,,0.00,meteohub,2013-07-17 02:22:00,
2013-07-16 22:27:00,76.6,66.9,30.20,NNE,22,0.0,0.0,72,0.00,,,0.00,meteohub,2013-07-17 02:27:00,
2013-07-16 22:32:00,76.6,66.9,30.20,NNE,22,0.0,0.0,72,0.00,,,0.00,meteohub,2013-07-17 02:32:00,
2013-07-16 22:37:00,76.5,67.1,30.20,NNE,22,0.0,0.0,73,0.00,,,0.00,meteohub,2013-07-17 02:37:00,
2013-07-16 22:42:00,76.5,66.7,30.20,NNE,22,0.0,0.0,72,0.00,,,0.00,meteohub,2013-07-17 02:42:00,
2013-07-16 22:47:00,76.1,66.7,30.20,NNE,22,0.0,0.0,73,0.00,,,0.00,meteohub,2013-07-17 02:47:00,
2013-07-16 22:52:00,75.9,67.1,30.20,NNE,22,0.0,0.0,74,0.00,,,0.00,meteohub,2013-07-17 02:52:00,
2013-07-16 22:57:00,75.9,67.1,30.20,South,180,0.0,0.0,74,0.00,,,0.00,meteohub,2013-07-17 02:57:00,
2013-07-16 23:02:00,75.9,67.1,30.20,South,180,0.0,0.0,74,0.00,,,0.00,meteohub,2013-07-17 03:02:00,
2013-07-16 23:07:00,75.9,67.1,30.20,South,180,0.0,0.0,74,0.00,,,0.00,meteohub,2013-07-17 03:07:00,
2013-07-16 23:12:00,75.9,67.5,30.20,South,180,0.0,0.0,75,0.00,,,0.00,meteohub,2013-07-17 03:12:00,
2013-07-16 23:17:00,75.7,67.3,30.20,South,180,0.0,0.0,75,0.00,,,0.00,meteohub,2013-07-17 03:17:00,
2013-07-16 23:22:00,75.4,66.9,30.20,South,180,0.0,0.0,75,0.00,,,0.00,meteohub,2013-07-17 03:22:00,
2013-07-16 23:27:00,75.2,67.1,30.20,South,180,0.0,0.0,76,0.00,,,0.00,meteohub,2013-07-17 03:27:00,
2013-07-16 23:32:00,75.0,67.3,30.20,South,180,0.0,0.0,77,0.00,,,0.00,meteohub,2013-07-17 03:32:00,
2013-07-16 23:37:00,74.7,66.9,30.20,South,180,0.0,0.0,77,0.00,,,0.00,meteohub,2013-07-17 03:37:00,
2013-07-16 23:42:00,74.7,67.3,30.20,South,180,0.0,0.0,78,0.00,,,0.00,meteohub,2013-07-17 03:42:00,
2013-07-16 23:47:00,74.5,67.1,30.20,South,180,0.0,0.0,78,0.00,,,0.00,meteohub,2013-07-17 03:47:00,
2013-07-16 23:52:00,74.7,67.6,30.20,South,180,0.0,0.0,79,0.00,,,0.00,meteohub,2013-07-17 03:52:00,
2013-07-16 23:57:00,74.7,67.6,30.20,South,180,0.0,0.0,79,0.00,,,0.00,meteohub,2013-07-17 03:57:00,